Weather History for Lexington, NC

Change the Weather History Date:

Tuesday, July 2, 2013

  Actual Average (KINT) Record (KINT)
Temperature  
Mean Temperature 73 °F -  
Max Temperature 76 °F 84 °F 96 °F (1968)
Min Temperature 70 °F 67 °F 46 °F (1988)
Cooling Degree Days 8    
Growing Degree Days 23 (Base 50)    
Moisture  
Dew Point 71 °F    
Average Humidity 98    
Maximum Humidity 100    
Minimum Humidity 86    
Precipitation  
Precipitation 0.14 in - - ()
Sea Level Pressure  
Sea Level Pressure 30.09 in    
Wind  
Wind Speed 6 mph (SSE)    
Max Wind Speed 12 mph    
Max Gust Speed 17 mph    
Visibility 10 miles    
Events Rain    
Averages and records for this station are not official NWS values.
T = Trace of Precipitation, MM = Missing Value Source: NWS Daily Summary

Daily Weather History Graph

Daily Weather History Graph

Search for Another Location

Airport:

Trip Planner

Search our weather history database for the weather conditions in past years. The results will help you decide how hot, cold, wet, or windy it might be!

Date:

Astronomy

Jul. 02, 2013 Rise Set
Actual Time 6:09 AM EDT 8:41 PM EDT
Civil Twilight 5:39 AM EDT 9:11 PM EDT
Nautical Twilight 5:02 AM EDT 9:48 PM EDT
Astronomical Twilight 4:21 AM EDT 10:29 PM EDT
Moon 2:05 AM EDT (7/2) 3:58 PM EDT (7/2)
Length of Visible Light 15h 31m
Length of Day
14h 31m
Waning Crescent, 26% of the Moon is Illuminated
Jul 2
Waning Crescent
Jul 8
New
Jul 15
First Quarter
Jul 22
Full
Jul 29
Last Quarter

Hourly Weather History & Observations

Time (EDT) Temp. Dew Point Humidity Pressure Visibility Wind Dir Wind Speed Gust Speed Precip Events Conditions
12:15 AM 72.1 °F 69.3 °F 91% 30.01 in 10.0 mi South 6.9 mph - N/A   Overcast
12:35 AM 72.1 °F 69.4 °F 91% 30.01 in 10.0 mi South 8.1 mph - N/A   Overcast
12:55 AM 72.1 °F 69.4 °F 91% 30.01 in 10.0 mi South 8.1 mph - N/A   Overcast
1:15 AM 72.1 °F 69.4 °F 91% 30.01 in 10.0 mi South 6.9 mph - N/A   Overcast
1:35 AM 72.0 °F 69.4 °F 92% 30.01 in 10.0 mi South 5.8 mph - N/A   Overcast
1:55 AM 72.0 °F 70.0 °F 93% 30.00 in 10.0 mi SSE 5.8 mph - N/A   Overcast
2:15 AM 71.6 °F 71.6 °F 100% 30.00 in 10.0 mi South 9.2 mph - N/A   Overcast
2:35 AM 70.9 °F 70.9 °F 100% 30.00 in 7.0 mi South 6.9 mph - N/A Rain Light Rain
2:55 AM 71.1 °F 71.1 °F 100% 30.00 in 10.0 mi SSE 5.8 mph - N/A   Overcast
3:15 AM 71.1 °F 71.1 °F 100% 30.01 in 10.0 mi South 5.8 mph - N/A   Overcast
3:35 AM 71.1 °F 71.1 °F 100% 30.01 in 10.0 mi South 4.6 mph - N/A   Overcast
3:55 AM 71.2 °F 71.2 °F 100% 30.01 in 10.0 mi South 4.6 mph - N/A   Overcast
4:15 AM 71.6 °F 71.6 °F 100% 30.02 in 10.0 mi South 5.8 mph - N/A   Overcast
4:35 AM 71.2 °F 71.2 °F 100% 30.02 in 10.0 mi South 3.5 mph - N/A   Mostly Cloudy
4:55 AM 71.6 °F 71.6 °F 100% 30.03 in 10.0 mi South 6.9 mph - N/A   Overcast
5:15 AM 71.6 °F 71.6 °F 100% 30.03 in 10.0 mi SSE 4.6 mph - N/A   Overcast
5:35 AM 71.6 °F 71.6 °F 100% 30.04 in 10.0 mi South 3.5 mph - N/A   Overcast
5:55 AM 71.6 °F 71.6 °F 100% 30.05 in 10.0 mi SSE 5.8 mph - N/A   Overcast
6:15 AM 71.6 °F 71.6 °F 100% 30.05 in 10.0 mi SSE 5.8 mph - N/A   Overcast
6:35 AM 71.6 °F 71.6 °F 100% 30.05 in 10.0 mi SSE 4.6 mph - N/A   Overcast
6:55 AM 71.6 °F 71.6 °F 100% 30.05 in 10.0 mi SSE 4.6 mph - N/A   Overcast
7:15 AM 71.6 °F 71.6 °F 100% 30.06 in 10.0 mi SSE 5.8 mph - N/A   Drizzle
7:35 AM 71.6 °F 71.6 °F 100% 30.07 in 10.0 mi SSE 5.8 mph - N/A   Drizzle
7:55 AM 71.2 °F 71.2 °F 100% 30.07 in 10.0 mi SSE 3.5 mph - N/A Rain Rain
8:15 AM 71.1 °F 71.1 °F 100% 30.08 in 10.0 mi SSE 5.8 mph - N/A Rain Rain
8:35 AM 71.1 °F 71.1 °F 100% 30.09 in 10.0 mi SSE 5.8 mph - 0.01 in Rain Rain
8:55 AM 71.1 °F 71.1 °F 100% 30.09 in 10.0 mi SSE 4.6 mph - 0.01 in Rain Light Rain
9:15 AM 70.9 °F 70.9 °F 100% 30.10 in 10.0 mi SSE 4.6 mph - N/A Rain Light Rain
9:35 AM 71.1 °F 71.1 °F 100% 30.10 in 7.0 mi SSE 4.6 mph - 0.01 in Rain Rain
9:55 AM 71.4 °F 71.4 °F 100% 30.10 in 7.0 mi South 4.6 mph - 0.02 in Rain Rain
10:15 AM 71.6 °F 71.6 °F 100% 30.11 in 10.0 mi South 5.8 mph - 0.01 in   Light Drizzle
10:35 AM 72.0 °F 72.0 °F 100% 30.11 in 10.0 mi South 6.9 mph - 0.01 in Rain Light Rain
10:55 AM 72.1 °F 72.1 °F 100% 30.11 in 10.0 mi South 6.9 mph - 0.01 in Rain Light Rain
11:15 AM 73.4 °F 73.4 °F 100% 30.11 in 10.0 mi South 8.1 mph - N/A Rain Light Rain
11:35 AM 72.7 °F 72.7 °F 100% 30.11 in 10.0 mi South 8.1 mph 17.3 mph N/A   Drizzle
11:55 AM 73.8 °F 72.3 °F 95% 30.12 in 10.0 mi South 9.2 mph - N/A   Light Drizzle
12:15 PM 74.3 °F 72.3 °F 94% 30.12 in 10.0 mi South 4.6 mph - N/A   Scattered Clouds
12:35 PM 73.9 °F 71.2 °F 91% 30.12 in 10.0 mi South 8.1 mph - N/A   Mostly Cloudy
12:55 PM 74.8 °F 72.0 °F 91% 30.12 in 10.0 mi South 4.6 mph - N/A   Mostly Cloudy
1:15 PM 75.2 °F 71.6 °F 89% 30.12 in 10.0 mi SE 4.6 mph - N/A   Mostly Cloudy
1:35 PM 75.2 °F 71.1 °F 87% 30.12 in 10.0 mi SSE 5.8 mph - N/A   Mostly Cloudy
1:55 PM 73.4 °F 73.4 °F 100% 30.12 in 3.0 mi SE 5.8 mph - 0.03 in Rain Light Rain
2:15 PM 74.3 °F 74.3 °F 100% 30.11 in 10.0 mi SSE 5.8 mph - N/A   Scattered Clouds
2:35 PM 74.7 °F 72.7 °F 94% 30.11 in 10.0 mi SSE 9.2 mph - N/A   Clear
2:55 PM 76.1 °F 71.6 °F 86% 30.11 in 10.0 mi SSE 10.4 mph - N/A   Scattered Clouds
3:15 PM 75.4 °F 71.4 °F 87% 30.11 in 10.0 mi SE 8.1 mph 16.1 mph N/A   Scattered Clouds
3:35 PM 73.6 °F 73.6 °F 100% 30.12 in 7.0 mi SSE 5.8 mph - 0.01 in Rain Light Rain
3:55 PM 73.6 °F 73.6 °F 100% 30.11 in 10.0 mi SE 6.9 mph - 0.01 in   Light Drizzle
4:15 PM 72.1 °F 72.1 °F 100% 30.11 in 5.0 mi SSE 9.2 mph - 0.05 in Rain Light Rain
4:35 PM 72.5 °F 72.5 °F 100% 30.11 in 10.0 mi SSE 11.5 mph 16.1 mph 0.05 in Rain Light Rain
4:55 PM 71.6 °F 71.6 °F 100% 30.11 in 10.0 mi SSE 5.8 mph - 0.05 in Rain Rain
5:15 PM 71.1 °F 71.1 °F 100% 30.11 in 10.0 mi SE 9.2 mph 17.3 mph N/A   Light Drizzle
5:35 PM 70.9 °F 70.9 °F 100% 30.12 in 10.0 mi SSE 6.9 mph 16.1 mph N/A Rain Light Rain
5:55 PM 70.9 °F 70.9 °F 100% 30.12 in 4.0 mi SSE 9.2 mph - 0.01 in   Heavy Drizzle
6:15 PM 70.9 °F 70.9 °F 100% 30.12 in 7.0 mi SSE 5.8 mph - N/A   Light Drizzle
6:35 PM 71.1 °F 71.1 °F 100% 30.13 in 10.0 mi SSE 6.9 mph - N/A   Mostly Cloudy
6:55 PM 71.2 °F 71.2 °F 100% 30.13 in 10.0 mi SSE 5.8 mph - N/A   Mostly Cloudy
7:15 PM 71.2 °F 71.2 °F 100% 30.14 in 10.0 mi SSE 4.6 mph - N/A   Mostly Cloudy
7:35 PM 71.6 °F 71.6 °F 100% 30.15 in 10.0 mi SSE 5.8 mph - N/A   Overcast
7:55 PM 71.6 °F 71.6 °F 100% 30.15 in 10.0 mi South 3.5 mph - N/A   Overcast
8:15 PM 71.4 °F 71.4 °F 100% 30.15 in 10.0 mi South 3.5 mph - N/A   Overcast
8:35 PM 71.2 °F 71.2 °F 100% 30.16 in 10.0 mi South 4.6 mph - N/A   Mostly Cloudy
8:55 PM 71.4 °F 71.4 °F 100% 30.16 in 10.0 mi South 3.5 mph - N/A   Mostly Cloudy
9:15 PM 71.2 °F 71.2 °F 100% 30.16 in 10.0 mi SSE 3.5 mph - N/A   Mostly Cloudy
9:35 PM 71.2 °F 71.2 °F 100% 30.16 in 10.0 mi SE 4.6 mph - N/A   Scattered Clouds
9:55 PM 71.1 °F 71.1 °F 100% 30.16 in 10.0 mi SE 3.5 mph - N/A   Clear
10:15 PM 71.1 °F 71.1 °F 100% 30.17 in 10.0 mi ESE 4.6 mph - N/A   Scattered Clouds
10:35 PM 70.9 °F 70.9 °F 100% 30.17 in 10.0 mi Calm Calm - N/A   Scattered Clouds
10:55 PM 71.1 °F 71.1 °F 100% 30.18 in 10.0 mi Calm Calm - N/A   Mostly Cloudy
11:15 PM 71.1 °F 71.1 °F 100% 30.18 in 10.0 mi ESE 4.6 mph - N/A Rain Rain
11:35 PM 71.1 °F 71.1 °F 100% 30.17 in 10.0 mi Calm Calm - N/A   Overcast